Portada
METAR-TAF:

METAR-TAF

Aeroports :

São Gabriel da Cachoeira, Amazones, Brasil

latitud: 00-08S, longitud: 067-05W, altitud: 90 m

Observació

L'informe es va fer fa 2 hores i 50 minuts, a les 13:00 UTC
Vent 1 kt amb direcció variable
Temperatura 27°C
Humitat 84%
Pressió 1015 hPa
Visibilitat 10 km o més
Núvols disperses a una alçada de 1000 ft

METAR: SBUA 261300Z VRB01KT 9999 SCT010 27/24 Q1015

Hora: 11:50 (15:50 UTC)


TAF: manca

Observacions i pronòstics meteorològics de més de 4000 aeroports (METAR i TAF).

Les estacions disponibles són els punts grocs i vermells al mapa.

Posi el ratolí al punt desitjat per veure el nom de l'estació.

Feu clic per veure les observacions i els pronòstics meteorològics.

Per canviar el mapa: feu clic els botons verds amb una creu de color negre per apropar; al botó verd amb un guió per allunyar la imatge; o en les fletxes verdes per a mapes adjacents.


METAR-TAF: